sat.trackr.live / text

‹ back to catalog

COSMOS 2583

NORAD 62904 · 2025-026C

PAYLOAD ACTIVE UNKNOWN

§ Identity

Operator
Country
CIS
Launch date
2025-02-05
Launch site
PLMSC
Launch vehicle
Mass (kg)
RCS (m²)

External: N2YO · Heavens-Above · Gunter

§ Orbital elements

Epoch: 2026-05-24T17:29:19.809600Z

Period
96.33 min
Inclination
81.9948°
Eccentricity
0.0011200
Mean motion
14.94918690 rev/d
Perigee alt
574.8 km
Apogee alt
590.4 km
Semi-major
6,960.8 km
B*
1.3302e-4
RAAN
98.4315°
Arg perigee
127.7399°
Mean anomaly
232.4838°
Rev number
7,069

§ Raw data

COSMOS 25831 62904U 25026C   26144.72870150  .00001476  00000+0  13302-3 0  99922 62904  81.9948  98.4315 0011200 127.7399 232.4838 14.94918690 70697

JSON: /api/v1/satellites/62904 · /tle

For live sub-satellite position, see the globe view (requires WebGL).

§ Visibility from observer

Set your observer location to see the next 7 days of passes ≥ 10°. The values pass through the URL so the page stays shareable.

No JS? Fill the form by hand. The geolocation button needs JavaScript.

§ Radio — SatNOGS DB

ModeDescriptionDownlinkUplink
FM S-band telemetry 2.280 GHz

1 transmitter · refreshed weekly from db.satnogs.org